STARLINK-4132, 53252

Orbit data source: Space-Track

STARLINK-4132, 53252 is a payload satellite owned by SpaceX/Seattle (US) in LEO that was launched on Sun, 24 Jul 2022 UTC via an FALCON 9 launch vehicle from the Air Force Eastern Test Range (AFETR). Payload-class satellites include a variety of spacecraft equipped with specific instruments for various scientific and technological missions. These include communications satellites like Starlink; space stations such as the ISS; scientific satellites like the Hubble; Earth observation satellites from companies like Planet Labs, Umbra, and HawkEye 360; GPS; miniature CubeSats for education and research; and military/defense satellites.

Loading next visibility...
Identifier
53252, 2022-086L
Orbit
LEO
Country
Flag of USUS
Related business
Manufacturer
SpaceX/Seattle
Mission
Operational Commercial Communications
Bus & Motor
STARLINK, Unknown motor
Mass
297 kg wet, ~275 kg dry
Launch date (UTC)
2022-07-24 (4 years ago)
Launch vehicle
FALCON 9
Launch site
Air Force Eastern Test Range (AFETR)
Object type
Payload
Rocket body
Debris
Shape & HBR
Box + 1 Pan, 10.1 m
Radar Cross Section
13.562 m², Large (>1 m²)

Expand to show TLE details & history
Last TLE update: 2 days ago

TLE from 2 days ago
0 STARLINK-4132
1 53252U 22086L   26171.44361837  .00077437  00000-0  47486-2 0  9997
2 53252  53.1596  92.6702 0001995  84.7830 275.3389 15.09464579216598
Epoch: 2026-06-20T10:38Z
TLE epoch observation values (Epoch: 2026-06-20T10:38:48.627Z)
Latitude
-0.00003°
Longitude
24.3094°
Altitude
538.598 km
Speed
7.594 km/s
True Right ascension
06h 10m 40s
True Declination
0° 00' 00"
Sunlit
Object was in daylight at epoch
Visualization orbit readout
Latitude
Unknown
Longitude
Unknown
Altitude
Unknown
Speed
Unknown
Apparent Right ascension
Unknown
Apparent Declination
Unknown
Sunlit
N/A
Visualization observer readout
Local Sidereal Time
23:07:13
Azimuth
Unknown
Elevation
Unknown
Doppler factor
Unknown
Orbital elements
Apogee altitude
539.469 km
Perigee altitude
536.709 km
Semi-major axis
6,916.226 km
Eccentricity
0.0002
Inclination
53.1596°
RAAN
92.6702°
Arg. of periapsis
84.783°
True anomaly
275.31614°
Mean anomaly
275.3389°
Eccentric anomaly
275.32752°
Mean motion
3.77346 °/min
Orbital period
95.4 mins
BSTAR
0.0047486
Loading maneuver chart data...
Computing Atmospheric mass density...

Documentation

Showing up to 5 results
|